Regional Weather Roundup
Issued by NWS

Home | Current Version | Previous Version | Text Only | Print | Product List | Glossary On
Versions: 1 2 3 4 5 6 7 8 9 10 11 12 13 14 15 16 17 18 19 20 21 22 23 24 25 26
000
ASUS44 KJAN 140510
RWRMS

MISSISSIPPI HOURLY WEATHER ROUNDUP
NATIONAL WEATHER SERVICE JACKSON MS
1100 PM CST WED DEC 13 2017

NOTE: "FAIR: INDICATES FEW OR NO CLOUDS BELOW 12,000 FEET WITH NO
SIGNIFICANT WEATHER AND/OR OBSTRUCTIONS TO VISIBILITY.

MSZ001>002-007>008-010>013-018>021-025>028-034>036-140600-
NORTHWEST MISSISSIPPI

CITY           SKY/WX    TMP DP  RH WIND       PRES   REMARKS
BATESVILLE     FAIR      47  27  46 SW8       29.89R
CLARKSDALE     MOCLDY    45  30  57 SW7       29.90S
CLEVELAND      FAIR      44  31  62 SW8       29.90S
GREENWOOD      CLEAR     42  30  62 SW7       29.92R
GREENVILLE     CLEAR     48  29  47 SW12      29.90S
OXFORD         FAIR      48  27  43 SW9       29.88S
TUNICA           N/A    N/A N/A N/A SW3       29.88R
WINONA         FAIR      46  29  51 SW5       29.92R
$$

MSZ003>006-009-014>017-022>024-029>033-037>039-140600-
NORTHEAST MISSISSIPPI

CITY           SKY/WX    TMP DP  RH WIND       PRES   REMARKS
ABERDEEN       CLOUDY    34  28  80 S3        29.90S
COLUMBUS AFB   CLEAR     33  27  80 CALM      29.89S
CORINTH        FAIR      45  25  45 W3        29.84R
GOLDN TRIANGLE CLEAR     47  28  47 SW8         N/A
STARKVILLE     FAIR      45  28  53 SW7       29.92R
TUPELO         CLEAR     43  24  47 SW7       29.87R
$$

MSZ040-058-140600-
CENTRAL MISSISSIPPI

CITY           SKY/WX    TMP DP  RH WIND       PRES   REMARKS
JACKSON INTL   CLEAR     44  29  55 S6        29.95R
JACKSON HAWKNS CLEAR     47  30  51 SW8       29.96R
MADISON        FAIR      45  30  57 SW6       29.95S
MERIDIAN KEY   CLEAR     39  32  76 SW6       29.96R WCI  35
MERIDIAN NAS   CLEAR     47  32  56 W7        29.95R
RAYMOND        FAIR      46  28  49 CALM      29.96R
VICKSBURG VKS  CLEAR     48  34  57 SW6       29.98S
$$

MSZ059>079-140600-
SOUTH MISSISSIPPI

CITY           SKY/WX    TMP DP  RH WIND       PRES   REMARKS
HATTIESBURG    PTCLDY    39  36  89 CALM      29.99F
LAUREL         FAIR      44  32  64 CALM      29.98S
MCCOMB         CLOUDY    44  35  70 CALM      29.98S
NATCHEZ        CLOUDY    48  36  63 SW7       29.98S
PINE BELT      CLOUDY    41  35  79 CALM      29.98F
$$

MSZ080>082-140600-
COASTAL MISSISSIPPI

CITY           SKY/WX    TMP DP  RH WIND       PRES   REMARKS
BILOXI         CLOUDY    52  45  77 W3        30.00S
PASCAGOULA     PTCLDY    48  41  76 SW3       30.01S
GULFPORT       CLOUDY    50  43  77 CALM      30.00F
$$

LAZ007>009-015>016-023>026-140600-
NORTHEAST LOUISIANA

CITY           SKY/WX    TMP DP  RH WIND       PRES   REMARKS
BASTROP        FAIR      46  31  56 SW6       29.94S
TALLULAH/VBURG CLEAR     45  32  60 CALM      29.97R
VIDALIA          N/A    N/A N/A N/A MISG      29.98S
$$




USA.gov is the U.S. government's official web portal to all federal, state and local government web resources and services.